DW2070 Weather Reports


Display with metric or nautical units.
time (UTC)temp
F
wind
direction
speed
MPH
gust
MPH
rain 1hr
in
rain 24hr
in
rain mn
in
humidity
%
barometer
mb
20260509082004 57 245 1.0 3.0 0.00 0.00 0.00 89 1014.5
20260509081005 57 245 0.0 4.0 0.00 0.00 0.00 88 1014.6
20260509080005 57 0 4.0 4.0 0.00 0.00 0.00 88 1014.6
20260509075005 57 0 0.0 0.0 0.00 0.00 0.00 88 1014.6
20260509074005 57 242 1.0 3.0 0.00 0.00 0.00 88 1014.6
20260509073004 57 241 0.0 2.0 0.00 0.00 0.00 88 1014.7
20260509070005 57 241 1.0 3.0 0.00 0.00 0.00 88 1014.7
20260509065026 57 241 1.0 2.0 0.00 0.00 0.00 87 1014.7
20260509064005 57 241 1.0 4.0 0.00 0.00 0.00 87 1014.7
20260509063004 57 241 1.0 3.0 0.00 0.00 0.00 87 1014.8
20260509062026 57 240 1.0 5.0 0.00 0.00 0.00 86 1014.8
20260509055004 58 239 1.0 4.0 0.00 0.00 0.00 85 1014.7
20260509054004 58 239 1.0 3.0 0.00 0.00 0.00 85 1014.8
20260509053004 58 239 1.0 3.0 0.00 0.00 0.00 84 1014.8
20260509052004 58 239 1.0 3.0 0.00 0.00 0.00 84 1014.7
20260509051004 58 239 2.0 4.0 0.00 0.00 0.00 84 1014.6
20260509050004 59 237 1.0 4.0 0.00 0.00 0.00 83 1014.6
20260509045004 59 237 1.0 4.0 0.00 0.00 0.00 83 1014.6
20260509044025 59 237 1.0 3.0 0.00 0.00 0.00 82 1014.5
20260509043004 59 237 1.0 3.0 0.00 0.00 0.00 81 1014.4
20260509042004 60 237 1.0 3.0 0.00 0.00 0.00 81 1014.3
20260509041004 60 0 0.0 2.0 0.00 0.00 0.00 80 1014.3
20260509040004 60 0 0.0 1.0 0.00 0.00 0.00 79 1014.1
20260509035004 60 237 1.0 2.0 0.00 0.00 0.00 79 1014.1
20260509034004 61 237 1.0 3.0 0.00 0.00 0.00 79 1014.1
20260509032025 61 238 1.0 3.0 0.00 0.00 0.00 78 1014.1
20260509031005 62 238 2.0 4.0 0.00 0.00 0.00 78 1014.1
20260509030004 62 239 2.0 4.0 0.00 0.00 0.00 78 1014.0
20260509025025 62 238 2.0 5.0 0.00 0.00 0.00 77 1014.0
20260509024025 63 236 3.0 6.0 0.00 0.00 0.00 77 1013.9
20260509022025 64 230 2.0 5.0 0.00 0.00 0.00 76 1013.7
20260509021004 64 239 2.0 6.0 0.00 0.00 0.00 76 1013.6
20260509020025 64 256 2.0 8.0 0.00 0.00 0.00 75 1013.6
20260509015004 64 259 2.0 7.0 0.00 0.00 0.00 75 1013.7
20260509014004 65 221 3.0 6.0 0.00 0.00 0.00 75 1013.6
20260509013004 65 233 3.0 10.0 0.00 0.00 0.00 74 1013.8
20260509011004 65 250 3.0 8.0 0.00 0.00 0.00 74 1013.7
20260509010004 65 242 3.0 8.0 0.00 0.00 0.00 74 1013.8
20260509005004 65 247 4.0 7.0 0.00 0.00 0.00 74 1013.8
20260509004004 65 247 4.0 9.0 0.00 0.00 0.00 74 1013.9
20260509002004 66 252 4.0 10.0 0.00 0.00 0.00 72 1013.9
20260509001025 67 265 5.0 10.0 0.00 0.00 0.00 72 1013.9
20260509000004 67 251 5.0 12.0 0.00 0.00 0.00 71 1013.9
20260508235004 68 255 4.0 10.0 0.00 0.00 0.00 70 1013.9
20260508234004 68 244 5.0 11.0 0.00 0.00 0.00 69 1013.9
20260508233004 70 264 5.0 12.0 0.00 0.00 0.00 68 1014.0
20260508232004 70 255 6.0 11.0 0.00 0.00 0.00 69 1014.1
20260508231004 71 250 5.0 11.0 0.00 0.00 0.00 67 1014.2
20260508230004 72 259 5.0 11.0 0.00 0.00 0.00 65 1014.2
20260508225004 72 266 5.0 12.0 0.00 0.00 0.00 65 1014.4
20260508224004 72 239 5.0 14.0 0.00 0.00 0.00 64 1014.5
20260508223004 73 254 5.0 12.0 0.00 0.00 0.00 65 1014.6
20260508222004 73 251 5.0 12.0 0.00 0.00 0.00 64 1014.8
20260508221004 72 251 4.0 10.0 0.00 0.00 0.00 65 1014.9
20260508220004 72 257 4.0 12.0 0.00 0.00 0.00 66 1014.9
20260508215025 72 257 5.0 10.0 0.00 0.00 0.00 67 1015.1
20260508214004 71 250 5.0 12.0 0.00 0.00 0.00 68 1015.4
20260508213004 71 231 5.0 12.0 0.00 0.00 0.00 68 1015.4
20260508212004 71 242 5.0 11.0 0.00 0.00 0.00 68 1015.5
20260508211025 71 246 5.0 11.0 0.00 0.00 0.00 67 1015.6
20260508210004 71 235 4.0 11.0 0.00 0.00 0.00 68 1015.8
20260508205004 71 247 5.0 10.0 0.00 0.00 0.00 68 1016.0
20260508204025 70 257 5.0 11.0 0.00 0.00 0.00 70 1016.0
20260508202004 70 249 4.0 10.0 0.00 0.00 0.00 69 1016.1
20260508201025 70 254 5.0 10.0 0.00 0.00 0.00 70 1016.1
20260508200004 70 254 4.0 11.0 0.00 0.00 0.00 68 1016.2
20260508195004 71 240 4.0 10.0 0.00 0.00 0.00 69 1016.3
20260508194004 70 249 3.0 11.0 0.00 0.00 0.00 69 1016.3
20260508193004 70 239 4.0 11.0 0.00 0.00 0.00 69 1016.3
20260508192004 69 252 3.0 9.0 0.00 0.00 0.00 69 1016.3
20260508191025 70 243 3.0 7.0 0.00 0.00 0.00 69 1016.3
20260508190004 69 248 2.0 8.0 0.00 0.00 0.00 70 1016.4
20260508185025 68 227 2.0 4.0 0.00 0.00 0.00 73 1016.4
20260508184004 67 271 2.0 8.0 0.00 0.00 0.00 73 1016.6
20260508183004 66 295 2.0 6.0 0.00 0.00 0.00 75 1016.8
20260508182025 66 300 2.0 7.0 0.00 0.00 0.00 75 1016.9
20260508181004 65 313 2.0 5.0 0.00 0.00 0.00 75 1017.1
20260508180025 65 13 1.0 5.0 0.00 0.00 0.00 76 1017.1
20260508175025 65 261 2.0 4.0 0.00 0.00 0.00 77 1017.1
20260508174004 65 264 1.0 5.0 0.00 0.00 0.00 77 1017.1
20260508173004 64 252 1.0 5.0 0.00 0.00 0.00 77 1017.0
20260508172004 64 251 1.0 2.0 0.00 0.00 0.00 79 1017.2
20260508171025 64 251 1.0 3.0 0.00 0.00 0.00 79 1017.1
20260508170004 63 250 1.0 3.0 0.00 0.00 0.00 81 1017.1
20260508165004 62 236 0.0 4.0 0.00 0.00 0.00 82 1017.2
20260508164004 62 0 0.0 2.0 0.00 0.00 0.00 82 1017.1
20260508163004 62 226 1.0 2.0 0.00 0.00 0.00 83 1017.1
20260508162004 61 225 1.0 3.0 0.00 0.00 0.00 84 1017.1
20260508161025 61 225 0.0 2.0 0.00 0.00 0.00 86 1017.0
20260508160004 60 225 1.0 2.0 0.00 0.00 0.00 87 1017.0
20260508155003 60 225 1.0 3.0 0.00 0.00 0.00 87 1017.1
20260508154004 60 225 1.0 4.0 0.00 0.00 0.00 87 1017.0
20260508153004 59 229 1.0 4.0 0.00 0.00 0.00 88 1017.1
20260508152004 59 232 2.0 4.0 0.00 0.00 0.00 88 1017.2
20260508151004 58 233 2.0 4.0 0.00 0.00 0.00 88 1017.1
20260508150004 58 233 1.0 4.0 0.00 0.00 0.00 89 1017.1
20260508145004 57 232 0.0 4.0 0.00 0.00 0.00 89 1017.1
20260508144003 57 0 0.0 0.0 0.00 0.00 0.00 89 1017.2
20260508143025 57 0 0.0 0.0 0.00 0.00 0.00 89 1017.1
20260508142004 56 0 0.0 0.0 0.00 0.00 0.00 89 1017.1
20260508141003 56 0 0.0 0.0 0.00 0.00 0.00 89 1017.0
20260508140004 55 0 0.0 0.0 0.00 0.00 0.00 89 1017.0
20260508135003 55 0 0.0 0.0 0.00 0.00 0.00 89 1016.8
20260508134025 54 0 0.0 0.0 0.00 0.00 0.00 89 1016.7
20260508133003 54 0 0.0 0.0 0.00 0.00 0.00 89 1016.5
20260508132003 54 0 0.0 0.0 0.00 0.00 0.00 89 1016.5
20260508131003 54 0 0.0 0.0 0.00 0.00 0.00 89 1016.4
20260508130003 54 0 0.0 0.0 0.00 0.00 0.00 89 1016.2
20260508125003 54 0 0.0 0.0 0.00 0.00 0.00 89 1016.3
20260508124025 53 0 0.0 0.0 0.00 0.00 0.00 89 1016.3
20260508123003 53 0 0.0 0.0 0.00 0.00 0.00 89 1016.2
20260508122003 53 0 0.0 0.0 0.00 0.00 0.00 89 1016.2
20260508121003 52 239 0.0 1.0 0.00 0.00 0.00 88 1016.2
20260508120024 53 239 1.0 3.0 0.00 0.00 0.00 88 1016.1
20260508115003 53 239 1.0 2.0 0.00 0.00 0.00 88 1016.0
20260508114003 53 239 1.0 3.0 0.00 0.00 0.00 88 1016.0
20260508113004 53 240 0.0 3.0 0.00 0.00 0.00 88 1015.9
20260508112024 53 240 1.0 2.0 0.00 0.00 0.00 87 1016.0
20260508111003 53 0 0.0 4.0 0.00 0.00 0.00 87 1015.9
20260508110003 54 0 0.0 0.0 0.00 0.00 0.00 87 1015.9
20260508105003 54 241 0.0 2.0 0.00 0.00 0.00 87 1015.9
20260508104003 54 241 1.0 2.0 0.00 0.00 0.00 87 1015.8
20260508103003 54 241 2.0 2.0 0.00 0.00 0.00 87 1015.9
20260508102003 54 0 0.0 1.0 0.00 0.00 0.00 87 1015.9
20260508101024 55 0 0.0 2.0 0.00 0.00 0.00 87 1016.0
20260508100003 55 0 0.0 1.0 0.00 0.00 0.00 87 1015.9
20260508095003 55 0 0.0 1.0 0.00 0.00 0.00 87 1015.9
20260508094003 55 241 0.0 2.0 0.00 0.00 0.00 87 1015.9
20260508093003 55 241 1.0 3.0 0.00 0.00 0.00 87 1015.8
20260508092024 55 241 0.0 3.0 0.00 0.00 0.00 87 1015.8
20260508091003 56 241 1.0 2.0 0.00 0.00 0.00 87 1015.9
20260508090003 56 241 1.0 2.0 0.00 0.00 0.00 87 1015.8
20260508085003 56 241 0.0 3.0 0.00 0.00 0.00 87 1015.9
20260508084003 56 241 0.0 2.0 0.00 0.00 0.00 87 1015.9
20260508083003 56 241 1.0 3.0 0.00 0.00 0.00 87 1016.1